This is the latest recevied weather packets stored in our database for station/object W3BRL. If no packets are shown the sender has not sent any weather packets the latest 10 day(s).
| Time | Temp. | Humidity | Pressure | Rain* | Wind** | Luminosity | Snow |
|---|---|---|---|---|---|---|---|
| 1777510541 | 11.67° C | 92% | 1006.5 hPa | 0 mm | - | 0 W/m² | - |
| 1777510237 | 11.67° C | 93% | 1006.5 hPa | 0 mm | - | 0 W/m² | - |
| 1777509934 | 11.67° C | 93% | 1006.2 hPa | 0 mm | - | 0 W/m² | - |
| 1777509630 | 11.67° C | 93% | 1006.3 hPa | 0 mm | - | 0 W/m² | - |
| 1777509327 | 11.67° C | 93% | 1006.1 hPa | 1.27 mm | - | 0 W/m² | - |
| 1777509024 | 11.67° C | 93% | 1006.3 hPa | 1.27 mm | - | 0 W/m² | - |
| 1777508721 | 12.22° C | 93% | 1006.3 hPa | 0 mm | - | 0 W/m² | - |
| 1777508418 | 12.22° C | 93% | 1006.1 hPa | 0 mm | - | 0 W/m² | - |
| 1777508115 | 12.22° C | 92% | 1006 hPa | 0 mm | - | 1 W/m² | - |
| 1777507812 | 12.22° C | 93% | 1006 hPa | 0 mm | - | 1 W/m² | - |
| 1777507509 | 12.22° C | 93% | 1005.7 hPa | 0 mm | - | 2 W/m² | - |
| 1777507205 | 12.22° C | 93% | 1005.4 hPa | 1.78 mm | - | 5 W/m² | - |
| 1777506903 | 12.22° C | 93% | 1005.3 hPa | 3.56 mm | - | 15 W/m² | - |
| 1777506600 | 12.78° C | 93% | 1005.6 hPa | 3.05 mm | - | 9 W/m² | - |
| 1777506296 | 12.78° C | 91% | 1005.4 hPa | 4.32 mm | - | 4 W/m² | - |
| 1777505992 | 13.33° C | 91% | 1005.4 hPa | 3.05 mm | - | 2 W/m² | - |
| 1777505688 | 13.89° C | 91% | 1005.1 hPa | 0 mm | - | 8 W/m² | - |
| 1777505385 | 13.89° C | 90% | 1005.1 hPa | 0 mm | - | 25 W/m² | - |
| 1777505081 | 13.89° C | 91% | 1005.2 hPa | 0 mm | - | 37 W/m² | - |
| 1777504779 | 13.89° C | 91% | 1005.1 hPa | 0 mm | - | 37 W/m² | - |
| 1777504476 | 13.89° C | 92% | 1005.2 hPa | 0 mm | - | 38 W/m² | - |
| 1777504171 | 13.89° C | 92% | 1004.9 hPa | 0 mm | - | 54 W/m² | - |
| 1777503867 | 13.89° C | 92% | 1005.3 hPa | 0 mm | - | 44 W/m² | - |
| 1777503563 | 13.89° C | 92% | 1005 hPa | 0 mm | - | 55 W/m² | - |
| 1777503261 | 13.89° C | 91% | 1005.1 hPa | 0 mm | - | 41 W/m² | - |
* Rain latest hour (hover to see other rain measurements)
** Current wind speed in m/s (hover to see current wind gust speed)